Temp
-4 -5 -5 -5 -5 -6 -4 -4 -5 -5 -4 -5 -4 -3 -4 -4 -3 -4 -4 -4 -4 -4 -5 -5 -4 -4 -4 -4 -4 -5 -5 -5 -5 -5 -5 -5 -5 -5 -5 -6 -6 -6 -6 -6
-4 -5 -6 -6 -5 -5 -5 -5 -5 -5 -6 -5 -4 -4 -4 -4 -4 -4 -4 -4 -4 -4 -4 -4 -4 -4 -4 -4 -4 -4 -4 -5 -5 -5 -5 -5 -5 -5 -5 -5 -6 -6 -6 -6
-5 -7 -6 -6 -5 -5 -7 -6 -6 -6 -6 -5 -5 -5 -5 -5 -5 -4 -4 -3 -4 -4 -4 -4 -4 -4 -4 -4 -4 -4 -4 -5 -5 -5 -5 -5 -6 -6 -6 -6 -6 -5 -6 -6
-5 -7 -5 -5 -5 -6 -7 -6 -6 -6 -6 -6 -6 -6 -5 -5 -4 -4 -4 -4 -4 -4 -4 -4 -4 -4 -4 -4 -4 -4 -5 -6 -6 -6 -6 -6 -6 -6 -6 -6 -6 -6 -5 -5
-5 -5 -4 -4 -5 -7 -6 -6 -6 -7 -6 -5 -5 -6 -5 -6 -5 -4 -3 -5 -5 -4 -4 -5 -4 -4 -4 -4 -4 -5 -5 -5 -5 -6 -6 -7 -6 -6 -6 -6 -6 -6 -6 -5
-4 -5 -3 -3 -5 -4 -5 -4 -5 -5 -6 -6 -5 -5 -5 -5 -5 -4 -5 -5 -6 -5 -4 -4 -4 -4 -4 -5 -4 -5 -5 -7 -6 -6 -7 -7 -7 -6 -6 -6 -6 -6 -6 -6
-5 -5 -4 -5 -5 -5 -5 -6 -7 -6 -6 -6 -5 -5 -6 -5 -5 -5 -4 -5 -5 -5 -6 -5 -5 -5 -5 -5 -5 -6 -6 -5 -7 -7 -7 -7 -7 -7 -7 -7 -7 -7 -6 -6
-7 -6 -7 -5 -6 -6 -6 -6 -7 -6 -5 -5 -5 -6 -7 -6 -6 -6 -7 -7 -5 -5 -6 -6 -5 -4 -4 -5 -5 -6 -6 -6 -6 -7 -7 -7 -7 -7 -7 -7 -8 -7 -7 -7
-8 -8 -8 -8 -7 -7 -7 -7 -6 -7 -6 -6 -7 -7 -7 -7 -7 -7 -7 -7 -6 -5 -6 -6 -5 -5 -4 -6 -5 -6 -6 -7 -7 -7 -7 -8 -7 -7 -8 -7 -7 -7 -7 -7
-8 -8 -8 -8 -9 -7 -7 -8 -8 -8 -7 -7 -6 -7 -7 -7 -8 -7 -7 -7 -7 -7 -6 -6 -5 -6 -5 -5 -6 -6 -6 -6 -6 -7 -7 -7 -8 -7 -7 -7 -7 -8 -8 -8
-9 -9 -8 -9 -9 -8 -9 -8 -8 -8 -8 -7 -7 -6 -7 -7 -7 -7 -7 -7 -7 -7 -6 -6 -6 -6 -6 -6 -6 -6 -6 -6 -6 -6 -7 -7 -7 -8 -8 -8 -8 -8 -8 -8
-10 -9 -9 -9 -9 -10 -9 -9 -9 -9 -8 -8 -8 -8 -9 -8 -7 -8 -8 -8 -7 -7 -7 -6 -7 -7 -7 -7 -7 -7 -7 -7 -7 -7 -7 -7 -8 -7 -7 -8 -8 -8 -8 -9
-11 -10 -9 -9 -9 -9 -9 -9 -9 -9 -9 -8 -8 -8 -8 -8 -8 -7 -8 -8 -8 -8 -7 -7 -7 -8 -8 -8 -8 -8 -8 -8 -8 -8 -8 -9 -8 -8 -8 -9 -9 -9 -9 -9
-11 -10 -10 -9 -9 -9 -10 -10 -10 -10 -9 -9 -8 -9 -9 -9 -9 -9 -9 -9 -9 -9 -8 -8 -8 -8 -9 -9 -9 -9 -9 -9 -9 -8 -8 -8 -8 -9 -9 -10 -10 -10 -10 -11
-11 -11 -11 -10 -10 -10 -10 -11 -10 -10 -10 -10 -10 -11 -12 -9 -8 -8 -9 -10 -9 -9 -9 -9 -9 -9 -9 -9 -9 -9 -9 -9 -8 -9 -9 -9 -10 -9 -9 -9 -10 -10 -10 -11
-11 -11 -11 -11 -10 -11 -11 -10 -11 -11 -11 -11 -10 -11 -12 -8 -8 -9 -9 -10 -9 -10 -10 -10 -10 -10 -10 -10 -10 -10 -10 -10 -9 -9 -9 -9 -10 -10 -9 -9 -9 -9 -9 -8
-12 -12 -12 -11 -12 -12 -12 -12 -12 -12 -12 -12 -12 -12 -9 -9 -10 -10 -10 -9 -10 -10 -10 -10 -10 -10 -11 -11 -10 -11 -11 -11 -10 -10 -10 -10 -11 -11 -11 -10 -10 -10 -10 -10
-13 -12 -11 -11 -11 -12 -12 -11 -12 -12 -11 -11 -12 -12 -13 -11 -11 -11 -11 -10 -11 -11 -11 -11 -11 -11 -11 -12 -12 -11 -11 -11 -11 -11 -11 -11 -11 -10 -10 -10 -10 -10 -10 -10
-13 -12 -13 -12 -12 -12 -11 -11 -11 -12 -12 -12 -12 -12 -13 -12 -12 -11 -11 -11 -11 -11 -12 -12 -12 -12 -12 -12 -12 -12 -12 -12 -12 -11 -11 -11 -12 -12 -12 -11 -11 -11 -10 -10
-12 -12 -12 -13 -12 -12 -12 -12 -12 -12 -12 -11 -12 -12 -12 -12 -13 -12 -11 -12 -12 -12 -12 -12 -13 -12 -12 -12 -12 -12 -12 -12 -12 -12 -12 -12 -12 -11 -11 -12 -11 -11 -10 -10
-13 -13 -12 -12 -13 -12 -13 -12 -12 -12 -12 -13 -13 -13 -13 -13 -13 -13 -13 -13 -13 -13 -13 -13 -13 -13 -13 -13 -13 -13 -13 -13 -13 -13 -13 -13 -12 -12 -12 -12 -12 -11 -11 -11
-13 -13 -13 -13 -13 -13 -13 -13 -13 -13 -14 -13 -13 -13 -13 -13 -13 -14 -13 -14 -14 -14 -14 -14 -14 -14 -14 -14 -14 -14 -14 -13 -13 -13 -13 -13 -13 -13 -13 -13 -13 -13 -13 -12
-13 -12 -12 -13 -13 -13 -13 -13 -13 -13 -13 -13 -13 -13 -14 -13 -13 -14 -14 -14 -14 -14 -14 -15 -15 -14 -14 -14 -14 -14 -14 -14 -14 -14 -14 -14 -13 -13 -13 -13 -14 -14 -14 -13
-13 -14 -14 -14 -13 -13 -13 -13 -13 -13 -13 -13 -14 -14 -14 -14 -14 -14 -14 -14 -15 -15 -15 -15 -15 -15 -15 -15 -15 -15 -15 -15 -15 -14 -14 -14 -14 -14 -14 -14 -14 -14 -14 -14
-14 -13 -13 -14 -13 -13 -13 -13 -13 -13 -13 -13 -14 -14 -14 -14 -15 -15 -15 -15 -15 -16 -16 -16 -16 -16 -16 -16 -16 -16 -16 -15 -15 -15 -15 -15 -14 -15 -15 -14 -15 -15 -15 -15
-14 -13 -13 -12 -12 -13 -12 -13 -13 -13 -13 -14 -14 -14 -14 -14 -15 -15 -16 -15 -16 -16 -17 -17 -18 -18 -18 -17 -17 -17 -16 -16 -16 -15 -16 -16 -15 -15 -15 -15 -15 -15 -15 -15
Height
5921 5924 5923 5921 5922 5919 5916 5913 5906 5920 5927 5925 5923 5926 5925 5924 5926 5927 5928 5929 5931 5933 5932 5933 5935 5936 5936 5937 5938 5939 5940 5941 5942 5943 5944 5945 5947 5949 5950 5949 5946 5946 5947 5949
5923 5925 5924 5922 5921 5925 5925 5921 5924 5925 5927 5927 5926 5926 5927 5929 5927 5927 5928 5929 5930 5932 5932 5933 5934 5935 5936 5937 5938 5938 5939 5940 5941 5942 5942 5944 5946 5947 5946 5945 5949 5948 5945 5946
5920 5924 5921 5920 5921 5923 5928 5931 5929 5928 5925 5927 5927 5924 5928 5927 5928 5928 5927 5928 5930 5931 5932 5933 5934 5934 5935 5936 5937 5938 5939 5940 5941 5942 5943 5943 5944 5943 5943 5940 5948 5948 5945 5944
5917 5918 5916 5919 5921 5923 5927 5930 5931 5927 5926 5925 5921 5921 5904 5928 5929 5929 5928 5927 5928 5931 5932 5932 5933 5934 5935 5935 5937 5937 5937 5937 5938 5939 5941 5942 5941 5941 5941 5942 5942 5942 5943 5945
5915 5917 5915 5918 5920 5921 5924 5921 5926 5927 5930 5919 5925 5919 5914 5924 5923 5926 5925 5926 5925 5928 5930 5932 5931 5932 5933 5935 5934 5932 5933 5935 5936 5937 5939 5938 5938 5936 5936 5938 5940 5939 5938 5939
5909 5909 5910 5913 5915 5916 5917 5917 5921 5924 5927 5927 5921 5918 5913 5917 5920 5921 5917 5921 5924 5923 5924 5927 5929 5931 5932 5933 5931 5930 5931 5903 5925 5932 5929 5927 5932 5933 5933 5934 5935 5935 5921 5930
5904 5905 5906 5909 5911 5914 5915 5918 5921 5923 5925 5927 5929 5923 5906 5914 5919 5919 5878 5914 5922 5922 5922 5923 5925 5926 5930 5930 5928 5927 5928 5928 5916 5927 5929 5931 5929 5927 5929 5927 5926 5928 5931 5929
5901 5902 5902 5903 5907 5910 5910 5914 5918 5923 5926 5924 5924 5921 5908 5912 5910 5916 5918 5916 5916 5918 5918 5916 5916 5920 5926 5928 5925 5921 5919 5921 5919 5921 5923 5925 5923 5923 5921 5922 5922 5921 5924 5926
5896 5900 5904 5901 5897 5903 5906 5908 5913 5913 5917 5919 5918 5915 5913 5913 5915 5916 5916 5913 5910 5912 5913 5912 5914 5915 5921 5925 5922 5916 5917 5917 5917 5919 5918 5917 5918 5918 5917 5915 5917 5916 5918 5918
5889 5892 5899 5896 5892 5896 5899 5906 5908 5910 5911 5912 5916 5909 5904 5904 5907 5905 5909 5908 5909 5906 5909 5907 5910 5912 5915 5916 5916 5915 5914 5913 5913 5912 5912 5911 5912 5911 5910 5909 5908 5910 5908 5907
5884 5885 5890 5892 5885 5890 5895 5896 5898 5903 5907 5911 5913 5909 5896 5895 5900 5903 5901 5901 5901 5903 5903 5902 5902 5903 5904 5905 5908 5911 5909 5909 5908 5907 5905 5903 5901 5902 5900 5902 5901 5902 5902 5902
5875 5878 5881 5888 5885 5883 5885 5892 5896 5896 5899 5900 5903 5899 5891 5893 5895 5895 5894 5894 5895 5895 5896 5895 5894 5894 5895 5897 5898 5899 5899 5899 5900 5898 5895 5893 5891 5893 5894 5892 5891 5893 5892 5892
5868 5869 5874 5879 5884 5881 5881 5886 5887 5890 5893 5895 5899 5888 5877 5888 5888 5887 5886 5885 5887 5889 5888 5886 5885 5885 5886 5886 5887 5888 5888 5888 5888 5887 5884 5883 5880 5881 5881 5881 5881 5882 5883 5884
5858 5864 5869 5875 5877 5876 5875 5873 5878 5882 5885 5889 5891 5878 5872 5874 5879 5880 5876 5875 5876 5879 5879 5879 5878 5878 5877 5876 5877 5877 5877 5876 5877 5878 5875 5863 5869 5873 5872 5871 5870 5870 5869 5870
5852 5857 5863 5869 5866 5867 5867 5868 5871 5872 5875 5879 5878 5868 5851 5863 5868 5865 5864 5866 5868 5868 5868 5869 5868 5868 5868 5867 5867 5867 5866 5867 5865 5864 5863 5858 5856 5858 5859 5860 5859 5859 5859 5857
5846 5849 5855 5860 5858 5860 5862 5862 5863 5860 5864 5864 5864 5857 5844 5857 5860 5852 5854 5857 5859 5859 5859 5858 5857 5857 5857 5858 5857 5857 5856 5856 5855 5853 5851 5850 5850 5850 5849 5848 5847 5843 5841 5840
5840 5845 5848 5852 5853 5849 5856 5858 5857 5858 5859 5856 5857 5850 5842 5849 5836 5848 5847 5846 5847 5847 5847 5847 5847 5847 5847 5847 5847 5846 5845 5845 5843 5841 5839 5838 5837 5836 5836 5834 5831 5828 5827 5826
5835 5834 5837 5839 5840 5847 5849 5848 5848 5851 5850 5848 5849 5846 5841 5846 5835 5837 5828 5837 5837 5837 5835 5835 5835 5835 5836 5835 5834 5833 5834 5833 5831 5830 5829 5826 5823 5822 5819 5817 5814 5812 5810 5808
5829 5832 5837 5836 5828 5835 5835 5834 5837 5839 5839 5840 5842 5840 5836 5834 5831 5829 5825 5830 5828 5827 5825 5824 5824 5824 5824 5824 5823 5822 5821 5819 5818 5816 5814 5812 5810 5808 5806 5803 5798 5795 5791 5785
5820 5825 5829 5830 5831 5829 5829 5827 5833 5834 5830 5831 5834 5832 5829 5827 5823 5818 5818 5819 5816 5816 5815 5813 5812 5811 5811 5810 5809 5809 5808 5807 5806 5805 5802 5799 5797 5794 5790 5786 5781 5777 5772 5767
5822 5825 5826 5826 5828 5826 5822 5822 5826 5829 5827 5824 5821 5821 5818 5816 5815 5813 5809 5806 5806 5804 5803 5802 5800 5799 5799 5798 5796 5795 5795 5793 5792 5791 5788 5785 5783 5779 5776 5771 5766 5761 5756 5751
5816 5816 5818 5818 5819 5820 5821 5817 5824 5823 5817 5815 5813 5811 5810 5808 5806 5804 5802 5799 5797 5794 5792 5790 5788 5787 5785 5785 5784 5783 5782 5781 5780 5777 5775 5773 5769 5766 5764 5759 5754 5748 5741 5734
5815 5813 5805 5814 5816 5816 5811 5810 5815 5814 5811 5809 5807 5804 5801 5797 5798 5797 5794 5791 5788 5784 5782 5779 5777 5775 5772 5771 5770 5770 5769 5768 5767 5765 5763 5760 5757 5754 5750 5747 5741 5735 5729 5721
5807 5809 5809 5808 5805 5810 5809 5811 5810 5807 5805 5804 5801 5799 5797 5794 5789 5784 5786 5784 5778 5775 5771 5767 5764 5762 5760 5759 5758 5757 5757 5757 5756 5753 5750 5747 5744 5741 5737 5734 5730 5724 5716 5707
5803 5805 5807 5806 5804 5804 5802 5802 5802 5803 5801 5799 5797 5794 5791 5787 5784 5779 5776 5773 5768 5763 5758 5754 5750 5748 5746 5746 5745 5745 5746 5746 5744 5741 5739 5736 5733 5730 5727 5723 5718 5712 5706 5697
5801 5801 5802 5801 5803 5802 5802 5801 5800 5798 5797 5794 5791 5788 5785 5782 5777 5773 5769 5764 5760 5755 5749 5743 5738 5735 5734 5733 5734 5734 5734 5734 5732 5731 5729 5725 5723 5720 5717 5713 5710 5704 5697 5692
Wind_Speed
9 7 5 16 7 7 1 12 19 6 2 12 14 4 6 11 9 7 5 5 7 7 9 8 7 7 8 9 9 10 10 10 10 11 12 13 9 6 5 6 8 6 6 8
11 7 11 13 11 5 2 9 10 15 9 6 20 16 7 11 11 9 5 5 5 7 9 9 9 8 8 8 9 9 10 11 11 11 12 12 12 12 13 15 9 11 7 9
14 6 21 20 16 8 6 5 13 12 18 17 19 12 14 8 8 10 10 6 5 5 7 7 8 9 8 9 10 10 11 12 12 12 13 13 12 15 17 19 15 16 15 14
17 19 26 25 16 15 5 14 14 19 18 25 16 17 11 15 12 12 10 13 11 7 6 6 6 7 6 9 10 11 14 14 15 14 14 15 16 17 18 19 18 20 17 17
16 25 26 19 18 22 13 27 24 17 14 27 23 22 16 20 25 27 19 15 15 16 11 11 10 9 10 10 12 14 15 16 16 18 17 17 19 21 22 22 22 17 27 22
26 27 30 26 26 26 27 28 26 20 12 19 21 34 21 25 13 17 20 16 16 19 20 17 19 14 14 16 17 18 18 18 12 18 22 18 19 22 24 24 26 29 25 18
26 27 28 25 28 28 25 21 12 12 11 12 10 21 28 27 29 22 26 26 19 20 24 24 21 22 16 19 18 20 21 26 5 20 19 19 22 27 25 26 27 29 28 29
20 22 24 30 23 25 26 23 16 12 9 18 16 16 29 33 32 27 30 39 37 26 25 31 31 28 23 19 25 26 28 26 26 22 22 25 26 31 30 30 29 29 24 27
19 17 16 26 35 29 24 24 24 23 22 20 22 27 33 29 25 29 33 39 40 36 33 33 27 28 23 23 27 30 29 29 30 29 27 30 30 34 30 31 34 32 34 31
24 22 9 30 38 33 28 18 16 23 24 26 19 27 29 24 21 32 28 27 28 35 37 39 34 31 27 30 31 32 33 34 35 35 31 30 34 34 33 38 32 35 40 34
22 30 21 21 32 29 21 31 32 19 18 19 17 27 30 35 38 36 38 39 34 30 35 39 37 38 37 36 37 36 39 40 39 39 40 41 38 36 42 43 52 41 40 39
25 27 23 19 22 24 17 20 20 26 32 24 22 25 29 34 36 36 38 40 38 36 33 38 40 41 40 39 39 41 44 44 42 42 46 40 54 44 41 37 38 38 36 34
26 18 24 20 25 34 34 25 26 19 19 22 24 34 41 39 39 46 49 50 49 44 39 37 39 41 42 42 42 44 45 45 44 45 50 52 49 41 42 36 32 34 33 38
30 22 16 20 22 24 12 23 23 26 26 18 22 36 36 36 40 40 45 47 45 41 38 38 39 40 41 42 44 45 45 45 44 47 41 37 43 42 43 37 44 46 48 45
39 30 22 19 29 20 30 15 14 24 22 24 22 25 35 27 37 44 46 46 40 38 37 36 36 37 39 40 40 42 44 41 44 46 53 52 55 45 47 51 51 49 50 50
35 33 27 19 29 24 18 18 27 17 19 25 38 31 31 30 38 37 33 31 34 40 41 39 38 38 37 40 41 44 46 47 49 53 55 54 53 52 52 55 59 61 62 65
24 18 19 25 17 18 14 16 16 15 21 21 24 28 27 46 43 45 50 49 44 41 39 40 40 41 41 42 43 45 47 49 52 54 55 54 53 53 56 59 61 64 67 70
22 29 31 32 28 25 24 27 24 28 33 34 30 34 38 39 50 37 30 35 34 36 38 39 39 40 41 42 45 48 48 49 52 53 54 56 58 61 62 64 66 68 70 72
23 29 19 29 21 21 38 37 37 36 36 36 31 32 32 32 37 40 44 34 34 36 37 38 39 41 43 45 47 48 50 51 53 55 57 58 59 59 61 62 64 67 69 71
35 34 35 31 28 25 28 19 21 29 33 39 35 36 36 33 33 39 39 34 35 34 36 38 40 42 44 46 48 49 51 52 52 53 54 56 57 59 60 61 64 67 70 74
27 27 29 35 25 27 35 40 35 26 33 34 32 29 29 32 32 32 36 38 38 39 38 40 42 44 44 46 47 48 49 49 48 49 50 52 54 56 56 58 63 67 69 70
15 17 23 27 35 33 37 45 33 25 32 32 30 30 29 29 28 29 31 33 34 36 37 38 39 41 43 43 44 45 46 46 47 47 47 48 49 52 53 57 59 60 59 59
18 13 10 27 23 26 23 21 23 25 25 24 24 26 26 29 27 28 31 33 37 40 41 43 44 45 47 47 46 46 44 43 41 40 43 46 49 52 53 53 47 49 46 48
15 6 17 22 23 19 17 21 19 18 21 19 21 23 26 29 32 37 31 32 36 38 40 42 44 44 43 43 43 42 40 37 39 43 46 49 52 51 48 43 45 46 48 49
22 19 15 18 21 20 21 17 18 16 20 21 23 23 25 28 29 33 34 35 39 41 43 45 47 45 43 41 40 39 39 39 42 45 47 48 45 40 39 42 43 41 41 46
25 10 13 16 12 14 15 15 19 17 17 18 20 24 25 26 29 32 33 31 32 32 32 31 31 32 33 33 34 36 39 40 40 41 37 34 33 34 38 36 32 33 33 38
Wind_Direction
212 227 210 283 250 273 305 5 40 355 156 6 321 312 299 272 258 260 274 256 244 230 234 235 235 225 207 201 203 208 217 234 246 250 246 251 248 251 242 235 227 240 258 268
224 245 284 246 267 262 264 7 350 309 315 235 205 257 248 282 274 273 267 284 253 223 243 236 243 247 247 242 235 233 240 248 251 251 259 260 254 248 245 242 253 262 251 258
195 230 236 243 251 290 351 291 287 260 260 281 252 247 267 258 264 269 281 266 272 261 244 243 238 249 251 258 260 262 262 258 258 258 263 268 261 253 252 260 254 262 254 261
214 212 240 236 248 245 210 236 252 275 286 291 237 264 211 249 268 261 273 288 281 262 262 268 264 268 264 278 274 273 271 270 269 265 261 263 264 262 261 261 263 264 269 270
228 229 248 247 245 237 228 247 228 238 267 292 308 300 308 270 257 241 243 259 272 273 255 256 257 263 269 278 292 286 279 279 274 280 275 264 263 259 258 256 255 274 247 237
235 240 239 238 231 239 228 245 242 249 250 263 286 310 271 292 239 236 244 251 260 266 267 264 256 250 262 279 291 289 302 236 265 285 275 268 265 270 268 265 260 255 268 265
255 247 257 251 245 246 244 252 254 270 258 277 288 278 263 276 282 287 180 297 283 263 272 268 263 254 256 270 270 289 288 252 242 287 286 279 278 274 270 264 266 264 260 261
255 254 270 265 256 249 261 246 217 245 263 257 231 234 265 273 282 290 287 291 284 273 272 266 254 252 255 270 275 281 285 289 306 304 281 279 271 267 261 267 259 266 260 264
231 251 255 271 270 242 231 254 235 220 238 261 281 253 252 259 271 277 278 278 272 267 269 280 269 272 273 274 269 272 276 282 291 292 295 282 275 267 260 281 278 266 261 263
236 223 211 237 252 255 238 211 240 242 241 248 241 280 274 262 259 268 279 282 269 270 270 275 278 270 258 253 261 267 272 274 275 282 277 272 280 276 275 276 294 271 265 258
249 226 210 250 257 259 247 236 226 220 218 251 257 254 261 269 273 277 278 279 278 270 267 270 273 271 271 259 263 264 267 269 269 271 270 278 271 270 282 282 288 280 277 281
242 235 238 228 277 282 244 225 257 245 230 235 237 268 262 262 263 267 270 272 271 275 271 269 269 267 269 268 267 266 268 271 273 276 279 278 281 283 277 284 268 271 279 279
234 243 232 225 241 252 269 270 224 220 230 232 238 253 258 255 255 263 266 269 270 269 271 270 268 267 264 265 263 264 268 272 275 276 279 271 272 274 276 274 262 271 280 265
228 229 218 230 240 233 261 252 233 234 236 239 253 263 270 268 264 261 264 266 270 274 268 262 261 263 265 264 265 267 271 274 274 259 267 254 263 269 275 280 284 294 287 288
244 244 211 216 249 254 244 224 239 229 228 220 228 244 290 255 250 251 257 262 271 273 267 267 264 265 264 264 264 263 265 261 261 266 266 269 290 287 286 286 288 285 285 280
247 240 223 228 239 242 230 241 214 201 214 228 228 252 288 266 247 252 257 262 266 269 271 271 271 268 264 264 265 266 267 267 268 273 279 283 283 282 280 280 280 284 286 285
226 216 218 213 258 208 230 236 234 245 244 240 247 261 271 255 256 270 275 275 275 277 276 272 268 268 266 265 264 264 267 270 272 275 278 281 284 283 282 282 283 284 284 283
193 208 219 222 223 229 238 234 230 235 249 255 264 269 270 272 280 278 277 277 271 268 267 266 265 265 266 265 265 267 268 270 273 275 277 278 280 282 285 287 286 286 286 286
214 206 232 240 246 245 235 228 226 229 248 257 257 267 279 279 276 274 276 276 272 270 268 267 266 265 265 266 268 270 271 273 274 276 280 283 286 287 287 287 288 290 291 292
217 218 211 230 225 253 247 263 257 254 253 261 269 269 278 278 272 273 277 279 272 271 271 270 269 268 268 267 268 269 271 274 278 282 283 284 285 287 289 292 294 295 294 293
252 258 249 245 251 243 264 264 268 280 278 293 285 279 274 269 272 272 276 278 281 281 277 274 274 274 272 273 275 277 278 279 281 282 283 285 288 290 293 294 294 294 293 294
270 247 246 246 245 250 251 258 261 282 281 279 281 284 281 279 280 278 277 282 284 284 283 282 280 279 278 278 278 278 279 280 282 284 287 289 290 292 292 292 295 295 296 295
274 235 258 260 242 260 280 297 292 280 281 283 282 286 291 291 288 286 289 290 287 287 287 285 283 282 282 283 282 283 283 283 283 284 286 287 289 290 293 295 293 295 295 301
233 211 280 291 285 286 279 276 283 286 287 287 286 289 293 296 298 297 295 289 288 288 287 286 284 282 281 280 280 280 279 279 283 285 288 289 291 293 292 290 292 296 302 305
305 303 271 264 271 284 289 299 288 284 286 290 293 296 297 297 297 300 303 301 297 294 293 289 283 280 279 278 277 277 278 280 283 286 288 291 290 287 290 292 299 305 308 312
287 295 286 277 288 271 278 276 284 289 296 298 300 302 301 298 298 302 306 306 303 305 312 304 297 288 280 278 280 281 282 283 284 286 289 287 288 291 293 298 303 306 309 313